Time,TemperatureF,DewpointF,PressureIn,WindDirection,WindDirectionDegrees,WindSpeedMPH,WindSpeedGustMPH,Humidity,HourlyPrecipIn,Conditions,Clouds,dailyrainin,SoftwareType,DateUTC
2013-05-09 00:01:00,48.5,47.0,30.10,SSE,163,0.0,-999.0,93,-99.99,,,0.00,weatherlink.com 1.10,2013-05-09 07:01:00,
2013-05-09 00:16:00,48.3,46.0,30.11,SSE,163,0.0,-999.0,93,-99.99,,,0.00,weatherlink.com 1.10,2013-05-09 07:16:00,
2013-05-09 00:31:00,48.1,46.0,30.11,SSE,163,0.0,-999.0,93,-99.99,,,0.00,weatherlink.com 1.10,2013-05-09 07:31:00,
2013-05-09 00:46:00,47.8,46.0,30.11,SSE,163,0.0,-999.0,93,-99.99,,,0.00,weatherlink.com 1.10,2013-05-09 07:46:00,
2013-05-09 01:01:00,47.7,46.0,30.11,SSE,163,0.0,-999.0,93,-99.99,,,0.00,weatherlink.com 1.10,2013-05-09 08:01:00,
2013-05-09 01:16:00,47.5,46.0,30.11,SSE,163,0.0,-999.0,94,-99.99,,,0.00,weatherlink.com 1.10,2013-05-09 08:16:00,
2013-05-09 01:31:00,47.4,46.0,30.11,SSE,163,0.0,-999.0,94,-99.99,,,0.00,weatherlink.com 1.10,2013-05-09 08:31:00,
2013-05-09 01:46:00,47.2,46.0,30.11,SSE,163,0.0,-999.0,94,-99.99,,,0.00,weatherlink.com 1.10,2013-05-09 08:46:00,
2013-05-09 02:01:00,47.1,46.0,30.11,SSE,163,0.0,-999.0,94,-99.99,,,0.00,weatherlink.com 1.10,2013-05-09 09:01:00,
2013-05-09 02:16:00,47.1,46.0,30.10,SSE,163,0.0,-999.0,94,-99.99,,,0.00,weatherlink.com 1.10,2013-05-09 09:16:00,
2013-05-09 02:31:00,47.1,46.0,30.10,SSE,163,0.0,-999.0,94,-99.99,,,0.00,weatherlink.com 1.10,2013-05-09 09:31:00,
2013-05-09 02:46:00,47.0,46.0,30.10,SSE,163,0.0,-999.0,95,-99.99,,,0.00,weatherlink.com 1.10,2013-05-09 09:46:00,
2013-05-09 03:01:00,46.8,46.0,30.09,SSE,163,0.0,-999.0,95,-99.99,,,0.00,weatherlink.com 1.10,2013-05-09 10:01:00,
2013-05-09 03:16:00,46.6,45.0,30.09,SSE,163,0.0,-999.0,94,-99.99,,,0.00,weatherlink.com 1.10,2013-05-09 10:16:00,
2013-05-09 03:31:00,46.7,45.0,30.09,SSE,163,0.0,-999.0,95,-99.99,,,0.00,weatherlink.com 1.10,2013-05-09 10:31:00,
2013-05-09 03:46:00,46.8,46.0,30.09,SSE,163,0.0,-999.0,95,-99.99,,,0.00,weatherlink.com 1.10,2013-05-09 10:46:00,
2013-05-09 04:01:00,46.6,45.0,30.09,SSE,163,0.0,-999.0,95,-99.99,,,0.00,weatherlink.com 1.10,2013-05-09 11:01:00,
2013-05-09 04:16:00,46.4,45.0,30.09,SSE,163,0.0,-999.0,95,-99.99,,,0.00,weatherlink.com 1.10,2013-05-09 11:16:00,
2013-05-09 04:31:00,46.2,45.0,30.09,SSE,163,0.0,-999.0,95,-99.99,,,0.00,weatherlink.com 1.10,2013-05-09 11:31:00,
2013-05-09 04:46:00,46.1,45.0,30.09,SSE,163,0.0,-999.0,95,-99.99,,,0.00,weatherlink.com 1.10,2013-05-09 11:46:00,
2013-05-09 05:02:00,45.9,45.0,30.09,SSE,163,0.0,-999.0,95,-99.99,,,0.00,weatherlink.com 1.10,2013-05-09 12:02:00,
2013-05-09 05:17:00,45.9,45.0,30.09,SSE,163,0.0,-999.0,95,-99.99,,,0.00,weatherlink.com 1.10,2013-05-09 12:17:00,
2013-05-09 05:32:00,45.8,45.0,30.09,SSE,163,0.0,-999.0,95,-99.99,,,0.00,weatherlink.com 1.10,2013-05-09 12:32:00,
2013-05-09 05:47:00,45.8,45.0,30.09,SSE,163,0.0,-999.0,95,-99.99,,,0.00,weatherlink.com 1.10,2013-05-09 12:47:00,
2013-05-09 06:02:00,46.1,45.0,30.09,SSE,163,0.0,-999.0,96,-99.99,,,0.00,weatherlink.com 1.10,2013-05-09 13:02:00,
2013-05-09 06:17:00,46.4,45.0,30.09,SSE,163,0.0,-999.0,96,-99.99,,,0.00,weatherlink.com 1.10,2013-05-09 13:17:00,
2013-05-09 06:32:00,46.9,46.0,30.09,SSE,163,0.0,-999.0,96,-99.99,,,0.00,weatherlink.com 1.10,2013-05-09 13:32:00,
2013-05-09 06:47:00,47.5,47.0,30.09,SSE,163,0.0,-999.0,96,-99.99,,,0.00,weatherlink.com 1.10,2013-05-09 13:47:00,
2013-05-09 07:02:00,48.2,47.0,30.11,SSE,163,0.0,-999.0,96,-99.99,,,0.00,weatherlink.com 1.10,2013-05-09 14:02:00,
2013-05-09 07:17:00,48.9,48.0,30.11,SSE,163,0.0,-999.0,97,-99.99,,,0.00,weatherlink.com 1.10,2013-05-09 14:17:00,
2013-05-09 07:32:00,49.7,49.0,30.11,SSE,163,0.0,-999.0,97,-99.99,,,0.00,weatherlink.com 1.10,2013-05-09 14:32:00,
2013-05-09 07:47:00,50.6,50.0,30.11,SSE,163,0.0,-999.0,97,-99.99,,,0.00,weatherlink.com 1.10,2013-05-09 14:47:00,
2013-05-09 08:02:00,51.0,50.0,30.12,SSE,163,0.0,-999.0,97,-99.99,,,0.00,weatherlink.com 1.10,2013-05-09 15:02:00,
2013-05-09 08:17:00,51.7,51.0,30.12,SSE,163,0.0,-999.0,96,-99.99,,,0.00,weatherlink.com 1.10,2013-05-09 15:17:00,
2013-05-09 08:32:00,52.6,50.0,30.13,SSE,163,0.0,-999.0,92,-99.99,,,0.00,weatherlink.com 1.10,2013-05-09 15:32:00,
2013-05-09 08:47:00,53.7,51.0,30.13,South,185,0.0,-999.0,89,-99.99,,,0.00,weatherlink.com 1.10,2013-05-09 15:47:00,
2013-05-09 09:02:00,55.3,52.0,30.13,SSE,153,1.0,-999.0,87,-99.99,,,0.00,weatherlink.com 1.10,2013-05-09 16:02:00,
2013-05-09 09:17:00,56.7,51.0,30.13,SE,142,0.0,-999.0,82,-99.99,,,0.00,weatherlink.com 1.10,2013-05-09 16:17:00,
2013-05-09 09:32:00,58.9,53.0,30.13,SSE,148,0.0,-999.0,80,-99.99,,,0.00,weatherlink.com 1.10,2013-05-09 16:32:00,
2013-05-09 09:47:00,60.6,53.0,30.13,SE,134,1.0,-999.0,76,-99.99,,,0.00,weatherlink.com 1.10,2013-05-09 16:47:00,
2013-05-09 10:02:00,62.7,54.0,30.13,SE,130,2.0,-999.0,72,-99.99,,,0.00,weatherlink.com 1.10,2013-05-09 17:02:00,
2013-05-09 10:17:00,64.3,54.0,30.12,SE,142,0.0,-999.0,69,-99.99,,,0.00,weatherlink.com 1.10,2013-05-09 17:17:00,
2013-05-09 10:32:00,65.8,55.0,30.12,SE,135,1.0,-999.0,68,-99.99,,,0.00,weatherlink.com 1.10,2013-05-09 17:32:00,
2013-05-09 10:47:00,66.5,54.0,30.12,East,94,2.0,-999.0,65,-99.99,,,0.00,weatherlink.com 1.10,2013-05-09 17:47:00,
2013-05-09 11:02:00,66.5,55.0,30.12,South,174,1.0,-999.0,66,-99.99,,,0.00,weatherlink.com 1.10,2013-05-09 18:02:00,
2013-05-09 11:17:00,66.6,54.0,30.12,South,186,1.0,-999.0,64,-99.99,,,0.00,weatherlink.com 1.10,2013-05-09 18:17:00,
2013-05-09 11:32:00,67.0,54.0,30.12,SSE,150,0.0,-999.0,64,-99.99,,,0.00,weatherlink.com 1.10,2013-05-09 18:32:00,
2013-05-09 11:48:00,68.4,55.0,30.12,SSW,194,3.0,-999.0,62,-99.99,,,0.00,weatherlink.com 1.10,2013-05-09 18:48:00,
2013-05-09 12:03:00,69.2,55.0,30.11,SSE,150,1.0,-999.0,62,-99.99,,,0.00,weatherlink.com 1.10,2013-05-09 19:03:00,
2013-05-09 12:18:00,69.9,55.0,30.10,ESE,107,0.0,-999.0,60,-99.99,,,0.00,weatherlink.com 1.10,2013-05-09 19:18:00,
2013-05-09 12:33:00,70.4,55.0,30.10,SSE,157,1.0,-999.0,58,-99.99,,,0.00,weatherlink.com 1.10,2013-05-09 19:33:00,
2013-05-09 12:48:00,70.7,55.0,30.10,South,170,1.0,-999.0,58,-99.99,,,0.00,weatherlink.com 1.10,2013-05-09 19:48:00,
2013-05-09 13:03:00,71.0,56.0,30.10,SSE,157,2.0,-999.0,59,-99.99,,,0.00,weatherlink.com 1.10,2013-05-09 20:03:00,
2013-05-09 13:18:00,71.9,57.0,30.10,SE,137,1.0,-999.0,59,-99.99,,,0.00,weatherlink.com 1.10,2013-05-09 20:18:00,
2013-05-09 13:33:00,72.5,56.0,30.10,ESE,104,2.0,-999.0,56,-99.99,,,0.00,weatherlink.com 1.10,2013-05-09 20:33:00,
2013-05-09 13:48:00,73.0,55.0,30.10,South,177,0.0,-999.0,53,-99.99,,,0.00,weatherlink.com 1.10,2013-05-09 20:48:00,
2013-05-09 14:03:00,73.9,56.0,30.09,WNW,302,1.0,-999.0,53,-99.99,,,0.00,weatherlink.com 1.10,2013-05-09 21:03:00,
2013-05-09 14:18:00,74.9,55.0,30.10,South,185,0.0,-999.0,50,-99.99,,,0.00,weatherlink.com 1.10,2013-05-09 21:18:00,
2013-05-09 14:33:00,75.6,56.0,30.09,SSW,205,3.0,-999.0,50,-99.99,,,0.00,weatherlink.com 1.10,2013-05-09 21:33:00,
2013-05-09 14:48:00,74.0,55.0,30.09,SE,144,3.0,-999.0,51,-99.99,,,0.00,weatherlink.com 1.10,2013-05-09 21:48:00,
2013-05-09 15:03:00,72.7,55.0,30.09,SE,140,4.0,-999.0,54,-99.99,,,0.00,weatherlink.com 1.10,2013-05-09 22:03:00,
2013-05-09 15:18:00,73.5,55.0,30.09,SE,130,3.0,-999.0,53,-99.99,,,0.00,weatherlink.com 1.10,2013-05-09 22:18:00,
2013-05-09 15:33:00,73.8,55.0,30.08,SE,143,2.0,-999.0,53,-99.99,,,0.00,weatherlink.com 1.10,2013-05-09 22:33:00,
2013-05-09 15:48:00,73.1,55.0,30.08,ESE,122,1.0,-999.0,53,-99.99,,,0.00,weatherlink.com 1.10,2013-05-09 22:48:00,
2013-05-09 16:03:00,72.4,55.0,30.08,South,169,1.0,-999.0,54,-99.99,,,0.00,weatherlink.com 1.10,2013-05-09 23:03:00,
2013-05-09 16:18:00,72.1,55.0,30.07,SE,127,1.0,-999.0,55,-99.99,,,0.00,weatherlink.com 1.10,2013-05-09 23:18:00,
2013-05-09 16:33:00,72.2,55.0,30.06,ESE,105,3.0,-999.0,55,-99.99,,,0.00,weatherlink.com 1.10,2013-05-09 23:33:00,
2013-05-09 16:48:00,71.5,55.0,30.06,SE,131,0.0,-999.0,56,-99.99,,,0.00,weatherlink.com 1.10,2013-05-09 23:48:00,
2013-05-09 17:03:00,71.3,54.0,30.06,SE,142,1.0,-999.0,55,-99.99,,,0.00,weatherlink.com 1.10,2013-05-10 00:03:00,
2013-05-09 17:18:00,70.9,54.0,30.06,ESE,115,1.0,-999.0,56,-99.99,,,0.00,weatherlink.com 1.10,2013-05-10 00:18:00,
2013-05-09 17:33:00,70.8,54.0,30.06,SSW,200,1.0,-999.0,56,-99.99,,,0.00,weatherlink.com 1.10,2013-05-10 00:33:00,
2013-05-09 17:51:00,69.7,54.0,30.06,South,177,0.0,-999.0,57,-99.99,,,0.00,weatherlink.com 1.10,2013-05-10 00:51:00,
2013-05-09 18:04:00,68.9,54.0,30.06,SE,128,1.0,-999.0,59,-99.99,,,0.00,weatherlink.com 1.10,2013-05-10 01:04:00,
2013-05-09 18:19:00,67.9,53.0,30.06,SSE,152,0.0,-999.0,60,-99.99,,,0.00,weatherlink.com 1.10,2013-05-10 01:19:00,
2013-05-09 18:34:00,65.9,52.0,30.07,SSW,208,0.0,-999.0,62,-99.99,,,0.00,weatherlink.com 1.10,2013-05-10 01:34:00,
2013-05-09 18:49:00,64.0,52.0,30.07,SSE,157,0.0,-999.0,65,-99.99,,,0.00,weatherlink.com 1.10,2013-05-10 01:49:00,
2013-05-09 19:04:00,62.2,52.0,30.07,South,169,0.0,-999.0,69,-99.99,,,0.00,weatherlink.com 1.10,2013-05-10 02:04:00,
2013-05-09 19:19:00,60.8,51.0,30.07,ENE,74,0.0,-999.0,71,-99.99,,,0.00,weatherlink.com 1.10,2013-05-10 02:19:00,
2013-05-09 19:34:00,59.4,51.0,30.08,SE,139,0.0,-999.0,73,-99.99,,,0.00,weatherlink.com 1.10,2013-05-10 02:34:00,
2013-05-09 19:49:00,58.2,50.0,30.09,SE,140,0.0,-999.0,75,-99.99,,,0.00,weatherlink.com 1.10,2013-05-10 02:49:00,
2013-05-09 20:04:00,56.9,50.0,30.09,SE,140,0.0,-999.0,77,-99.99,,,0.00,weatherlink.com 1.10,2013-05-10 03:04:00,
2013-05-09 20:19:00,55.9,50.0,30.10,SE,125,1.0,-999.0,79,-99.99,,,0.00,weatherlink.com 1.10,2013-05-10 03:19:00,
2013-05-09 20:34:00,54.9,49.0,30.11,SE,124,0.0,-999.0,81,-99.99,,,0.00,weatherlink.com 1.10,2013-05-10 03:34:00,
2013-05-09 20:49:00,54.1,49.0,30.11,SE,124,0.0,-999.0,82,-99.99,,,0.00,weatherlink.com 1.10,2013-05-10 03:49:00,
2013-05-09 21:04:00,53.5,49.0,30.12,SE,125,0.0,-999.0,83,-99.99,,,0.00,weatherlink.com 1.10,2013-05-10 04:04:00,
2013-05-09 21:19:00,52.9,49.0,30.12,SE,124,0.0,-999.0,85,-99.99,,,0.00,weatherlink.com 1.10,2013-05-10 04:19:00,
2013-05-09 21:34:00,52.5,48.0,30.12,SE,124,0.0,-999.0,85,-99.99,,,0.00,weatherlink.com 1.10,2013-05-10 04:34:00,
2013-05-09 21:49:00,52.1,48.0,30.12,SE,124,0.0,-999.0,86,-99.99,,,0.00,weatherlink.com 1.10,2013-05-10 04:49:00,
2013-05-09 22:04:00,51.6,48.0,30.13,SE,124,0.0,-999.0,87,-99.99,,,0.00,weatherlink.com 1.10,2013-05-10 05:04:00,
2013-05-09 22:19:00,51.2,48.0,30.13,SE,124,0.0,-999.0,87,-99.99,,,0.00,weatherlink.com 1.10,2013-05-10 05:19:00,
2013-05-09 22:34:00,50.8,47.0,30.14,SE,124,0.0,-999.0,88,-99.99,,,0.00,weatherlink.com 1.10,2013-05-10 05:34:00,
2013-05-09 22:49:00,50.4,47.0,30.14,SE,124,0.0,-999.0,89,-99.99,,,0.00,weatherlink.com 1.10,2013-05-10 05:49:00,
2013-05-09 23:04:00,50.0,47.0,30.14,SE,124,0.0,-999.0,89,-99.99,,,0.00,weatherlink.com 1.10,2013-05-10 06:04:00,
2013-05-09 23:19:00,49.5,47.0,30.14,SE,124,0.0,-999.0,90,-99.99,,,0.00,weatherlink.com 1.10,2013-05-10 06:19:00,
2013-05-09 23:34:00,49.1,46.0,30.14,SE,124,0.0,-999.0,90,-99.99,,,0.00,weatherlink.com 1.10,2013-05-10 06:34:00,
2013-05-09 23:49:00,48.7,46.0,30.14,SE,124,0.0,-999.0,91,-99.99,,,0.00,weatherlink.com 1.10,2013-05-10 06:49:00,